DELTA 1 DEB, 42094

Orbit data source: Space-Track

DELTA 1 DEB, 42094 is space debris in SSO originally from a launch on Sun, 15 Dec 1968 UTC launched from the Air Force Western Test Range (AFWTR). Debris objects in space refer to the collection of defunct objects orbiting the Earth. Examples of debris include non-operational satellites, rocket bodies, and fragments generated from explosions, collisions, or faulty payload assembly.

Loading next visibility...
Identifier
42094, 1968-114W
Orbit
SSO
Country
Flag of USUS
Related business
Manufacturer
Aerojet
Mission
Spacecraft
Bus & Motor
Unknown
Mass
Unknown
Launch date (UTC)
1968-12-15 (57 years ago)
Launch vehicle
Unknown
Launch site
Air Force Western Test Range (AFWTR)
Object type
Payload
Rocket body
Debris
Shape & HBR
Unknown shape, 0.1 m
Radar Cross Section
Small (<0.1 m²)

Expand to show TLE details & history
Last TLE update: 2 months ago

TLE from 2 months ago
0 DELTA 1 DEB
1 42094U 68114W   25339.95399408  .00000675  00000-0  51756-2 0  9992
2 42094 101.5928 232.7426 0205728 356.8065   3.1676 12.37256690272139
Epoch: 2025-12-05T22:53Z
TLE epoch observation values (Epoch: 2025-12-05T22:53:45.088Z)
Latitude
-0°
Longitude
174.31605°
Altitude
1,358.599 km
Speed
7.253 km/s
True Right ascension
15h 30m 58s
True Declination
0° 00' 00"
Sunlit
Object was in daylight at epoch
Visualization orbit readout
Latitude
Unknown
Longitude
Unknown
Altitude
Unknown
Speed
Unknown
Apparent Right ascension
Unknown
Apparent Declination
Unknown
Sunlit
N/A
Visualization observer readout
Local Sidereal Time
15:03:13
Azimuth
Unknown
Elevation
Unknown
Doppler factor
Unknown
Orbital elements
Apogee altitude
1,678.207 km
Perigee altitude
1,353.406 km
Semi-major axis
7,893.944 km
Eccentricity
0.02057
Inclination
101.5928°
RAAN
232.7426°
Arg. of periapsis
356.8065°
True anomaly
3.3013°
Mean anomaly
3.1676°
Eccentric anomaly
3.2341°
Mean motion
3.09458 °/min
Orbital period
116.33 mins
BSTAR
0.0051756
Loading maneuver chart data...
Computing Atmospheric mass density...
Loading historical data...
Loading historical data...
Loading historical data...
Loading historical data...
Loading historical data...
Loading historical data...
Loading historical data...

Documentation

Showing up to 5 results
|